DLR-TUBSAT (25757 NORAD) Tracking and Keplerian Element Data

This shows tracking and keplerian element data for the satellite.

Feedback or suggestion? Click here.




ElementValue
Catalog25757
NameDLR-TUBSAT
Epoch Orbit36103
Epoch Day34.973555
Epoch Year2025
RAAN10.4761
Inclination98.6203
Eccentricity0.0015349
Argument of Perigee67.5015
Mean Anonmoly292.7803
Mean Motion14.52175946
Decay Rate3.81E-06
L11 25757U 99029B 25034.97355500 .00000381 00000+0 10574-3 0 9994
L22 25757 98.6203 10.4761 0015349 67.5015 292.7803 14.52175946361039



Live tracking and technical data element details for DLR-TUBSAT (NORAD 25757). DLR-TUBSAT can be tracked NOW for your location showing map with azimuth and elevation plus other details from your city location.







IsCatalogInMostPopularTable: catalog: 25757, numindb: 285
Update: records affected: 1



GetName: 25757 DLR-TUBSAT

Hit Count: updated at: Fri, 16 May 2025 11:05:34 GMT